Showing default

NOAA 5, 9057

Orbit data source: Space-Track

NOAA 5, 9057 is a payload satellite owned by NOAA (US) in SSO that was launched on Thu, 29 Jul 1976 UTC via a DELTA 2310 launch vehicle from the Air Force Western Test Range (AFWTR). Payload-class satellites include a variety of spacecraft equipped with specific instruments for various scientific and technological missions. These include communications satellites like Starlink; space stations such as the ISS; scientific satellites like the Hubble; Earth observation satellites from companies like Planet Labs, Umbra, and HawkEye 360; GPS; miniature CubeSats for education and research; and military/defense satellites.

Loading next visibility...
Identifier
9057, 1976-077A
Orbit
SSO
Country
Flag of USUS
Related business
Manufacturer
RCA/East Windsor
Mission
Non-operational spacecraft
Bus & Motor
TIROS M, Unknown motor
Mass
340 kg wet, 340 kg dry
Launch date (UTC)
1976-07-29 (49 years ago)
Launch vehicle
DELTA 2310
Launch site
Air Force Western Test Range (AFWTR)
Object type
Payload
Rocket body
Debris
Shape & HBR
Unknown
Radar Cross Section
Large (>1 m²)

Expand to show TLE details & history
Last TLE update: 1 day ago

TLE from 1 day ago
0 NOAA 5
1  9057U 76077A   25345.90692352 -.00000017  00000-0  22639-3 0  9997
2  9057 102.2828 326.0146 0009949 323.5685  91.7260 12.37825143231301
Epoch: 2025-12-11T21:45Z
TLE epoch observation values (Epoch: 2025-12-11T21:45:58.192Z)
Latitude
53.64447°
Longitude
-98.45242°
Altitude
1,524.638 km
Speed
7.108 km/s
True Right ascension
20h 35m 35s
True Declination
53° 29' 46"
Sunlit
Object was in daylight at epoch
Visualization orbit readout
Latitude
Unknown
Longitude
Unknown
Altitude
Unknown
Speed
Unknown
Apparent Right ascension
Unknown
Apparent Declination
Unknown
Sunlit
N/A
Visualization observer readout
Local Sidereal Time
22:56:20
Azimuth
Unknown
Elevation
Unknown
Doppler factor
Unknown
Orbital elements
Apogee altitude
1,521.282 km
Perigee altitude
1,505.579 km
Semi-major axis
7,891.568 km
Eccentricity
0.00099
Inclination
102.2828°
RAAN
326.0146°
Arg. of periapsis
323.5685°
True anomaly
91.83995°
Mean anomaly
91.726°
Eccentric anomaly
91.78298°
Mean motion
3.09598 °/min
Orbital period
116.28 mins
BSTAR
0.00022639
Loading maneuver chart data...
Computing Atmospheric mass density...
Loading historical data...
Loading historical data...
Loading historical data...
Loading historical data...
Loading historical data...
Loading historical data...
Loading historical data...

Documentation

Showing up to 5 results
|